FW6303 Weather Reports


Display with metric or nautical units.
time (UTC)temp
F
wind
direction
speed
MPH
gust
MPH
rain 1hr
in
rain 24hr
in
rain mn
in
humidity
%
barometer
mb
20260504180031 78 75 0.0 2.0 0.00 0.00 0.00 32 1016.6
20260504175026 78 61 1.0 2.0 0.00 0.00 0.00 32 1016.9
20260504174034 78 68 0.0 3.0 0.00 0.00 0.00 31 1017.1
20260504173029 77 74 0.0 2.0 0.00 0.00 0.00 31 1017.2
20260504172019 76 53 1.0 6.0 0.00 0.00 0.00 33 1017.3
20260504171029 75 100 1.0 2.0 0.00 0.00 0.00 34 1017.5
20260504151023 70 39 1.0 3.0 0.00 0.00 0.00 37 1018.5
20260504141027 66 270 2.0 6.0 0.00 0.00 0.00 42 1018.9
20260504081028 50 0.0 0.0 0.00 0.00 0.00 69 1018.0
20260504045028 55 84 0.0 1.0 0.00 0.00 0.00 57 1018.7
20260504044053 55 84 0.0 1.0 0.00 0.00 0.00 56 1018.9
20260504043028 56 85 0.0 1.0 0.00 0.00 0.00 55 1018.9
20260504042032 56 83 0.0 1.0 0.00 0.00 0.00 54 1018.9
20260504041027 56 61 0.0 1.0 0.00 0.00 0.00 54 1018.9
20260504040016 56 0.0 0.0 0.00 0.00 0.00 54 1018.9
20260504035028 56 65 0.0 1.0 0.00 0.00 0.00 53 1019.0
20260504034017 57 76 0.0 1.0 0.00 0.00 0.00 52 1018.9
20260504033023 57 58 0.0 1.0 0.00 0.00 0.00 51 1018.9
20260504032035 57 64 0.0 1.0 0.00 0.00 0.00 50 1018.9
20260504031024 57 69 0.0 1.0 0.00 0.00 0.00 49 1018.9
20260504030139 58 0.0 0.0 0.00 0.00 0.00 47 1018.9
20260504025028 58 0.0 0.0 0.00 0.00 0.00 46 1018.7
20260504024115 59 0.0 0.0 0.00 0.00 0.00 45 1018.6
20260504023027 59 69 0.0 1.0 0.00 0.00 0.00 45 1018.6
20260504022037 59 69 0.0 1.0 0.00 0.00 0.00 45 1018.5
20260504021024 59 0.0 1.0 0.00 0.00 0.00 44 1018.4
20260504020055 60 69 0.0 1.0 0.00 0.00 0.00 44 1018.2
20260504015028 60 69 0.0 1.0 0.00 0.00 0.00 42 1018.1
20260504014033 60 0.0 0.0 0.00 0.00 0.00 41 1018.0
20260504013047 60 0.0 0.0 0.00 0.00 0.00 41 1017.9
20260504012032 61 0.0 0.0 0.00 0.00 0.00 40 1017.8
20260504011024 61 0.0 0.0 0.00 0.00 0.00 39 1017.6
20260504010037 62 0.0 0.0 0.00 0.00 0.00 38 1017.8
20260504005027 63 0.0 0.0 0.00 0.00 0.00 37 1017.7
20260504004035 63 69 0.0 1.0 0.00 0.00 0.00 37 1017.5
20260504003029 64 0.0 1.0 0.00 0.00 0.00 37 1017.5
20260504002032 65 62 1.0 2.0 0.00 0.00 0.00 36 1017.4
20260504001027 65 59 1.0 1.0 0.00 0.00 0.00 35 1017.4
20260504000034 66 67 0.0 1.0 0.00 0.00 0.00 35 1017.2
20260503235052 66 48 1.0 3.0 0.00 0.00 0.00 34 1017.3
20260503234035 67 57 0.0 2.0 0.00 0.00 0.00 33 1017.2
20260503233024 67 260 1.0 2.0 0.00 0.00 0.00 32 1017.2
20260503232055 68 93 1.0 2.0 0.00 0.00 0.00 31 1017.3
20260503231024 68 50 1.0 3.0 0.00 0.00 0.00 30 1017.2
20260503230033 68 43 1.0 2.0 0.00 0.00 0.00 30 1017.2
20260503225023 69 22 2.0 4.0 0.00 0.00 0.00 29 1017.3
20260503224037 69 64 0.0 2.0 0.00 0.00 0.00 30 1017.2
20260503223047 70 32 2.0 4.0 0.00 0.00 0.00 29 1017.5
20260503222031 70 43 1.0 3.0 0.00 0.00 0.00 28 1017.4
20260503221047 71 160 1.0 3.0 0.00 0.00 0.00 28 1017.5
20260503220035 72 54 2.0 3.0 0.00 0.00 0.00 28 1017.5
20260503215103 73 35 2.0 3.0 0.00 0.00 0.00 27 1017.5
20260503214034 72 28 2.0 3.0 0.00 0.00 0.00 27 1017.5
20260503213025 72 53 0.0 3.0 0.00 0.00 0.00 28 1017.6
20260503212115 71 25 2.0 6.0 0.00 0.00 0.00 28 1017.6
20260503211028 72 33 2.0 4.0 0.00 0.00 0.00 26 1017.7
20260503210031 72 34 2.0 4.0 0.00 0.00 0.00 26 1017.9
20260503205027 72 19 2.0 6.0 0.00 0.00 0.00 28 1017.9
20260503204037 72 49 1.0 8.0 0.00 0.00 0.00 27 1017.9
20260503203046 73 12 3.0 6.0 0.00 0.00 0.00 27 1018.1
20260503202034 72 15 2.0 4.0 0.00 0.00 0.00 28 1018.2
20260503201023 72 1 2.0 4.0 0.00 0.00 0.00 28 1018.5
20260503200036 73 359 2.0 3.0 0.00 0.00 0.00 27 1018.5
20260503195028 71 174 2.0 3.0 0.00 0.00 0.00 28 1018.6
20260503194031 72 5 1.0 3.0 0.00 0.00 0.00 29 1018.7
20260503193026 71 133 1.0 2.0 0.00 0.00 0.00 29 1019.1
20260503192020 71 223 2.0 10.0 0.00 0.00 0.00 29 1019.3
20260503191107 72 21 2.0 4.0 0.00 0.00 0.00 30 1019.4
20260503190033 70 153 2.0 4.0 0.00 0.00 0.00 31 1019.6
20260503185023 70 12 2.0 6.0 0.00 0.00 0.00 31 1019.6
20260503184036 71 294 2.0 6.0 0.00 0.00 0.00 30 1019.8
20260503183045 71 340 1.0 3.0 0.00 0.00 0.00 31 1020.0
20260503182040 69 32 1.0 6.0 0.00 0.00 0.00 30 1020.1
20260503181024 69 28 2.0 7.0 0.00 0.00 0.00 30 1020.1